シューメーカー-ホルト第2彗星

121P/Shoemaker-Holt 2 (2004)

English version
Home page
Updated on June 18, 2006

---------------------------------------------------------------------

・ プロフィール

・ 軌道要素

Epoch 2004 Aug. 23.0 TT = JDT 2453240.5  
T 2004 Sept. 1.71301 TT                                 Muraoka 
q   2.6481189            (2000.0)            P               Q
n   0.12306456     Peri.    6.22958     -0.26887759     -0.91526106
a   4.0029550      Node    99.66996     +0.87003971     -0.36441848
e   0.3384590      Incl.   17.71770     +0.41320182     +0.17174504
P   8.01
From 179 observations 1989-1998, mean residual 0".70.

・ 星図

・ 光度変化

        m1 = 3.4 + 5 logΔ + 25 log r(t - 145)

---------------------------------------------------------------------

軌道要素は村岡健治氏の計算によるものです。
星図は StellaNavigator Ver.2.0 for Windows (アストロアーツ 編著 / アスキー出版局刊) で作成したものです。
光度グラフはComet for Windowsで作成したものです。

---------------------------------------------------------------------

Copyright(C) Seiichi Yoshida (comet@aerith.net). All rights reserved.